Hourly Weather Roundup
Issued by NWS Central Illinois

Home | Current Version | Previous Version | Graphics & Text | Print | Product List | Glossary On
Versions: 1 2 3 4 5 6 7 8 9 10 11 12 13 14 15 16 17 18 19 20 21 22 23 24 25 26 27 28 29 30 31 32 33 34 35 36 37 38 39 40 41 42 43 44 45 46 47 48 49 50
000
NZUS43 KILX 112210
HWRILX

Area Weather Roundup
National Weather Service Lincoln IL
400 PM CST MON DEC 11 2017

NOTE:  "FAIR" indicates few or no clouds below 12,000 feet, with
       no sigificant weather and/or obstructions to visibility.


CITY           SKY/WX    TMP DP  RH WIND       PRES   REMARKS
Bloomington    PTCLDY    44  25  47 W28G33    29.68R WCI  34
Champaign      PTCLDY    47  24  40 W25G37    29.68R
Danville       PTCLDY    48  27  43 W15G25    29.63R
Decatur        CLEAR     48  24  39 W16G33    29.72R
Effingham      CLEAR     51  26  38 W25G36    29.75R
Flora          CLOUDY    57  24  27 W21G35    29.74R
Galesburg      CLOUDY    42  30  63 W22G30    29.77R WCI  32
Jacksonville   CLOUDY    46  30  52 W28G38    29.79R
Lacon          CLOUDY    42  27  55 NW15G23   29.70R WCI  34
Lawrenceville  CLOUDY    53  32  44 SW16      29.70F
Litchfield     CLOUDY    49  29  46 W35       29.79R
$$


CITY           SKY/WX    TMP DP  RH WIND       PRES   REMARKS
Lincoln        MOCLDY    46  30  52 W17G25    29.72R
Macomb         MOCLDY    43  32  65 NW31G39   29.80R WCI  32
Mattoon        CLEAR     49  25  39 W24G33    29.70R
Mt Carmel AP   NOT AVBL
Olney-Noble AP CLEAR     55  17  22 W17G25    29.73R
Paris AP       CLEAR     51  26  38 W24G37    29.68R
Peoria         MOCLDY    43  25  49 NW16G28   29.73R
Pontiac        MOCLDY    43  27  53 W15       29.68R
Rantoul        CLOUDY    47  27  45 W21G31    29.67R
Robinson       PTCLDY    52  31  44 SW13      29.70R
Springfield    CLOUDY    49  30  48 NW29G37   29.76R
Taylorville    CLOUDY    48  28  45 W25G36    29.75R
$$

...REGIONAL REPORTS...


CITY           SKY/WX    TMP DP  RH WIND       PRES   REMARKS
Chicago O`Hare CLOUDY    37  25  61 N8        29.69R WCI  31
Kankakee       CLOUDY    40  27  59 E9        29.65S WCI  34
Moline         LGT SNOW  37  33  85 NW16G28   29.78R FOG     WCI  28
Mount Sterling CLOUDY    44  32  63 NW31G43   29.81R WCI  33
Mount Vernon   CLEAR     56  23  27 W15G22    29.78R
Pittsfield     CLOUDY    48  32  52 NW23G35   29.83R
Quincy         CLOUDY    46  31  55 NW22G35   29.84R
Rockford       SNOW      32  30  92 NW7       29.76R VSB 1/2 WCI  26
$$


CITY           SKY/WX    TMP DP  RH WIND       PRES   REMARKS
Burlington     CLOUDY    42  33  70 NW16G29   29.81R WCI  34
Cedar Rapids   LGT SNOW  34  33  96 NW12      29.82R FOG     WCI  25
Des Moines     CLOUDY    41  32  70 NW26G35   29.95R WCI  30
Kirksville     CLOUDY    45  34  65 NW21G36   29.91R
Ottumwa        CLOUDY    43  32  65 NW23G30   29.88R WCI  34
St Louis       MOCLDY    52  28  39 NW23G35   29.83R
$$


CITY           SKY/WX    TMP DP  RH WIND       PRES   REMARKS
Terre Haute    CLEAR     49  30  48 SW9       29.67F
Evansville     CLOUDY    53  32  44 SW12      29.75S
Indianapolis   MOCLDY    46  28  49 SE8       29.67F
Lafayette      CLOUDY    44  29  55 S7        29.64F
Madison        CLOUDY    31  27  85 NW7       29.75R WCI  24
Milwaukee      CLOUDY    33  27  78 NW7       29.72R WCI  27
$$






USA.gov is the U.S. government's official web portal to all federal, state and local government web resources and services.